| time (UTC) | temp F | wind direction | speed knots | gust knots | rain 1hr in | rain 24hr in | rain mn in | humidity % | barometer mb |
| 20260504204529 | 78 | 306 | 3.5 | 7.0 | 0.00 | 0.00 | 0.00 | 36 | 1014.9 |
| 20260504203029 | 79 | 183 | 3.5 | 8.7 | 0.00 | 0.00 | 0.00 | 38 | 1015.1 |
| 20260504201526 | 79 | 241 | 2.6 | 5.2 | 0.00 | 0.00 | 0.00 | 38 | 1015.3 |
| 20260504200036 | 79 | 193 | 4.3 | 7.8 | 0.00 | 0.00 | 0.00 | 36 | 1015.4 |
| 20260504194522 | 79 | 234 | 5.2 | 8.7 | 0.00 | 0.00 | 0.00 | 35 | 1015.7 |
| 20260504193018 | 78 | 197 | 1.7 | 5.2 | 0.00 | 0.00 | 0.00 | 37 | 1016.0 |
| 20260504191527 | 79 | 71 | 0.9 | 7.0 | 0.00 | 0.00 | 0.00 | 34 | 1016.0 |
| 20260504190013 | 79 | 250 | 0.9 | 5.2 | 0.00 | 0.00 | 0.00 | 40 | 1016.3 |
| 20260504184513 | 78 | 195 | 2.6 | 7.8 | 0.00 | 0.00 | 0.00 | 37 | 1016.5 |
| 20260504183012 | 79 | 233 | 0.0 | 4.3 | 0.00 | 0.00 | 0.00 | 39 | 1016.7 |
| 20260504181505 | 78 | 245 | 1.7 | 7.0 | 0.00 | 0.00 | 0.00 | 39 | 1017.0 |
| 20260504180001 | 78 | 360 | 1.7 | 6.1 | 0.00 | 0.00 | 0.00 | 41 | 1017.1 |
| 20260504174609 | 77 | 60 | 1.7 | 5.2 | 0.00 | 0.00 | 0.00 | 39 | 1017.2 |
| 20260504173103 | 76 | 262 | 1.7 | 5.2 | 0.00 | 0.00 | 0.00 | 41 | 1017.4 |
| 20260504171554 | 77 | 227 | 1.7 | 4.3 | 0.00 | 0.00 | 0.00 | 40 | 1017.7 |
| 20260504081524 | 44 | 247 | 0.0 | 0.0 | 0.00 | 0.00 | 0.00 | 92 | 1018.8 |
| 20260504044559 | 48 | 247 | 0.0 | 0.0 | 0.00 | 0.00 | 0.00 | 87 | 1019.9 |
| 20260504043055 | 49 | 246 | 0.0 | 0.0 | 0.00 | 0.00 | 0.00 | 85 | 1020.0 |
| 20260504041551 | 49 | 247 | 0.0 | 0.0 | 0.00 | 0.00 | 0.00 | 84 | 1020.1 |
| 20260504034558 | 50 | 247 | 0.0 | 0.0 | 0.00 | 0.00 | 0.00 | 80 | 1020.3 |
| 20260504033124 | 50 | 247 | 0.0 | 0.0 | 0.00 | 0.00 | 0.00 | 80 | 1020.5 |
| 20260504031549 | 51 | 246 | 0.0 | 0.0 | 0.00 | 0.00 | 0.00 | 78 | 1020.5 |
| 20260504030049 | 52 | 247 | 0.0 | 0.0 | 0.00 | 0.00 | 0.00 | 76 | 1020.4 |
| 20260504024547 | 52 | 246 | 0.0 | 0.0 | 0.00 | 0.00 | 0.00 | 75 | 1020.2 |
| 20260504023059 | 53 | 247 | 0.0 | 0.0 | 0.00 | 0.00 | 0.00 | 73 | 1020.0 |
| 20260504021551 | 54 | 247 | 0.0 | 0.0 | 0.00 | 0.00 | 0.00 | 72 | 1019.9 |
| 20260504020054 | 55 | 247 | 0.0 | 0.0 | 0.00 | 0.00 | 0.00 | 70 | 1019.7 |
| 20260504014550 | 56 | 246 | 0.0 | 0.0 | 0.00 | 0.00 | 0.00 | 69 | 1019.6 |
| 20260504013051 | 57 | 247 | 0.0 | 0.0 | 0.00 | 0.00 | 0.00 | 68 | 1019.5 |
| 20260504011546 | 58 | 247 | 0.0 | 0.0 | 0.00 | 0.00 | 0.00 | 65 | 1019.4 |
| 20260504010053 | 60 | 247 | 0.0 | 0.0 | 0.00 | 0.00 | 0.00 | 60 | 1019.2 |
| 20260504004559 | 61 | 247 | 0.0 | 0.0 | 0.00 | 0.00 | 0.00 | 55 | 1019.1 |
| 20260504003044 | 63 | 247 | 0.0 | 0.0 | 0.00 | 0.00 | 0.00 | 52 | 1019.0 |
| 20260504001544 | 65 | 247 | 0.0 | 0.0 | 0.00 | 0.00 | 0.00 | 47 | 1019.0 |
| 20260504000044 | 67 | 247 | 0.0 | 0.0 | 0.00 | 0.00 | 0.00 | 41 | 1019.0 |
| 20260503234546 | 67 | 246 | 0.0 | 2.6 | 0.00 | 0.00 | 0.00 | 38 | 1019.0 |
| 20260503233042 | 69 | 355 | 0.0 | 3.5 | 0.00 | 0.00 | 0.00 | 37 | 1018.8 |
| 20260503231542 | 70 | 360 | 0.0 | 3.5 | 0.00 | 0.00 | 0.00 | 35 | 1018.8 |
| 20260503230040 | 71 | 349 | 0.9 | 7.0 | 0.00 | 0.00 | 0.00 | 34 | 1019.0 |
| 20260503224538 | 71 | 269 | 0.0 | 4.3 | 0.00 | 0.00 | 0.00 | 34 | 1019.0 |
| 20260503223037 | 72 | 323 | 3.5 | 6.1 | 0.00 | 0.00 | 0.00 | 32 | 1019.2 |
| 20260503221541 | 72 | 40 | 1.7 | 4.3 | 0.00 | 0.00 | 0.00 | 32 | 1019.2 |
| 20260503220034 | 72 | 360 | 3.5 | 7.8 | 0.00 | 0.00 | 0.00 | 31 | 1019.3 |
| 20260503214534 | 72 | 150 | 2.6 | 6.1 | 0.00 | 0.00 | 0.00 | 32 | 1019.4 |
| 20260503213041 | 72 | 333 | 3.5 | 7.0 | 0.00 | 0.00 | 0.00 | 34 | 1019.6 |
| 20260503211530 | 71 | 303 | 1.7 | 6.1 | 0.00 | 0.00 | 0.00 | 33 | 1019.7 |
| 20260503210029 | 72 | 355 | 3.5 | 7.8 | 0.00 | 0.00 | 0.00 | 34 | 1019.9 |